This is the latest recevied weather packets stored in our database for station/object G4ZMG. If no packets are shown the sender has not sent any weather packets the latest 10 day(s).
| Time | Temp. | Humidity | Pressure | Rain* | Wind** | Luminosity | Snow |
|---|---|---|---|---|---|---|---|
| 1777960202 | 8.89° C | 80% | 1013.5 hPa | 0 mm | - | 19 W/m² | - |
| 1777959604 | 8.89° C | 80% | 1013.6 hPa | 0 mm | - | 21 W/m² | - |
| 1777959005 | 8.89° C | 80% | 1013.7 hPa | 0 mm | - | 21 W/m² | - |
| 1777958403 | 8.89° C | 80% | 1013.5 hPa | 0 mm | - | 19 W/m² | - |
| 1777957803 | 8.89° C | 80% | 1013.3 hPa | 0 mm | - | 16 W/m² | - |
| 1777957206 | 8.89° C | 80% | 1013.3 hPa | 0 mm | - | 14 W/m² | - |
| 1777956601 | 8.89° C | 80% | 1013.3 hPa | 0 mm | - | 11 W/m² | - |
| 1777956002 | 8.89° C | 80% | 1013.3 hPa | 0 mm | - | 7 W/m² | - |
| 1777955402 | 8.89° C | 80% | 1013.2 hPa | 0 mm | - | 0 W/m² | - |
| 1777954804 | 8.89° C | 81% | 1013.3 hPa | 0 mm | - | 0 W/m² | - |
| 1777954203 | 8.89° C | 81% | 1013.4 hPa | 0 mm | - | 0 W/m² | - |
| 1777953605 | 8.89° C | 81% | 1013.3 hPa | 0 mm | - | 0 W/m² | - |
| 1777953003 | 8.89° C | 81% | 1013.4 hPa | 0 mm | - | 0 W/m² | - |
| 1777952403 | 9.44° C | 80% | 1013.2 hPa | 0 mm | - | 0 W/m² | - |
| 1777951802 | 9.44° C | 80% | 1013.4 hPa | 0 mm | - | 0 W/m² | - |
| 1777951202 | 9.44° C | 79% | 1013.4 hPa | 0 mm | - | 0 W/m² | - |
| 1777950603 | 9.44° C | 79% | 1013.5 hPa | 0 mm | - | 0 W/m² | - |
| 1777950005 | 9.44° C | 78% | 1013.5 hPa | 0 mm | - | 0 W/m² | - |
| 1777949403 | 9.44° C | 78% | 1013.5 hPa | 0 mm | - | 0 W/m² | - |
| 1777948804 | 9.44° C | 78% | 1013.5 hPa | 0 mm | - | 0 W/m² | - |
| 1777948202 | 9.44° C | 78% | 1013.5 hPa | 0 mm | - | 0 W/m² | - |
| 1777947606 | 9.44° C | 79% | 1013.3 hPa | 0 mm | - | 0 W/m² | - |
| 1777947008 | 9.44° C | 80% | 1013.4 hPa | 0 mm | - | 0 W/m² | - |
| 1777946408 | 9.44° C | 82% | 1013.2 hPa | 0 mm | - | 0 W/m² | - |
| 1777945809 | 9.44° C | 83% | 1013.3 hPa | 0 mm | - | 0 W/m² | - |
* Rain latest hour (hover to see other rain measurements)
** Current wind speed in m/s (hover to see current wind gust speed)